Location: Newark
(40.9833°N, 0.0333°W)
Time: 19:51:07
(UTC+00:00)

Vanguard 2 Rocket - Pass Details

Date: 30 October 2020
Orbit: 553 x 3326 km, 32.9° (Epoch: 29 November)

Event Time Altitude Azimuth Distance (km) Brightness Sun altitude
Rises 23:05:16 0° 258° (WSW) 3,409 - -61.9°
Reaches altitude 10° 23:08:32 10° 235° (SW) 2,815 - -62.1°
Maximum altitude 23:12:30 16° 200° (SSW) 2,828 - -62.3°
Drops below altitude 10° 23:17:40 10° 166° (SSE) 3,856 - -62.6°
Sets 23:23:33 0° 149° (SSE) 5,490 - -62.8°
